Home > Weather > Lakewood > Past weeks

Flag for USA Past Weather in Lakewood, Colorado, USA — Yesterday and Last 2 Weeks

Now
74 °F

Partly sunny.


Feels Like: 77 °F
Forecast: 64 / 89 °F
Wind: 13 mph from Southwest

Location: Centennial Airport

Current Time: Jul 26, 2016 at 8:21:38 AM

Latest Report: Jul 26, 2016 at 7:53 AM


Visibility: 10 mi

Pressure: 29.96 "Hg (24.68 "Hg at 1683m altitude)

Humidity: 33%

Dew Point: 43 °F

Location of LakewoodLocation

Past Weather in Lakewood — Graph

°F

Lakewood Temperature Yesterday

Maximum temperature yesterday: 93 °F (at 3:53 PM)
Minimum temperature yesterday: 58 °F (at 2:53 AM)
Average temperature yesterday: 76 °F

High & Low Weather Summary for the Past Weeks

 TemperatureHumidityPressure
High94 °F (Jul 16, 2:53 PM)82% (Jul 15, 6:53 PM)30.24 "Hg (Jul 15, 6:53 PM)
Low57 °F (Jul 12, 2:53 AM)7% (Jul 16, 3:53 PM)29.69 "Hg (Jul 11, 6:53 AM)
Average75 °F38%29.94 "Hg
* Reported Jul 11 6:53 AM — Jul 26 6:53 AM, Lakewood, Weather by CustomWeather, © 2016

Note: Actual official high and low records may vary slightly from our data, if they occured in-between our weather recording intervals... More about our weather records

Advertising

Lakewood Weather History for the Previous 24 Hours

Scroll right to see more
 ConditionsComfort  
Time TempWeatherWind HumidityBarometerVisibility
6:53 AM
Tue, Jul 26
73 °FPassing clouds.9 mph34%29.95 "Hg10 mi
5:53 AM67 °FPassing clouds.3 mph42%29.93 "Hg10 mi
4:53 AM69 °FPassing clouds.5 mph39%29.91 "Hg10 mi
3:53 AM71 °FPassing clouds.7 mph35%29.91 "Hg10 mi
2:53 AM74 °FPassing clouds.17 mph31%29.92 "Hg10 mi
1:53 AM74 °FPassing clouds.17 mph33%29.92 "Hg10 mi
12:53 AM73 °FPassing clouds.13 mph33%29.93 "Hg10 mi
11:53 PM
Mon, Jul 25
75 °FPassing clouds.17 mph33%29.95 "Hg10 mi
10:53 PM74 °FPassing clouds.29 mph37%29.96 "Hg10 mi
9:53 PM76 °FPassing clouds.24 mph31%29.95 "Hg10 mi
8:53 PM75 °FScattered clouds.20 mph31%29.93 "Hg10 mi
7:53 PM77 °FScattered clouds.22 mph32%29.93 "Hg10 mi
6:53 PM81 °FScattered clouds.22 mph27%29.96 "Hg10 mi
5:53 PM88 °FScattered clouds.8 mph23%29.93 "Hg10 mi
4:53 PM92 °FPassing clouds.10 mph14%29.90 "Hg10 mi
3:53 PM93 °FScattered clouds.3 mph11%29.92 "Hg10 mi
2:53 PM90 °FBroken clouds.14 mph13%29.95 "Hg10 mi
1:53 PM87 °FBroken clouds.7 mph21%29.97 "Hg10 mi
12:53 PM90 °FPassing clouds.10 mph17%29.95 "Hg10 mi
11:53 AM87 °FPassing clouds.N/A25%29.98 "Hg10 mi
10:53 AM82 °FPassing clouds.7 mph33%30.00 "Hg10 mi
9:53 AM81 °FPassing clouds.6 mph27%30.00 "Hg10 mi
8:53 AM78 °FPassing clouds.8 mph32%30.00 "Hg10 mi
Weather by CustomWeather, © 2016

See weather overviewHow to use our weather pages